SITRO-AIS 7 (FARTUSHNIY)

Last updated on Sun Jun 21 2026 00:03:50 GMT+0000 (Coordinated Universal Time)

1 57194U 23091AE 26171.39677419 .00008457 00000+0 33420-3 0 9992 2 57194 97.5059 234.2523 0012947 97.5940 262.6768 15.25672072164769
UTC large
Height (km)
Speed (km/s)
/
Latitude / Longitude
Inclination (degrees)
Orbital Period (minutes)
Azimuth
Elevation
Range (km)
Doppler Factor

Next 0 passes for location: London (51.5072 / 0.1276)

No passes found over London.
SITRO-AIS 7 (FARTUSHNIY)